Flag for Switzerland Weather past 2 weeks in Spiez, Bern, Switzerland

Now
39 °F

Chilly.


Feels Like: 39 °F
Forecast: 26 / 49 °F
Wind: 2 mph from East

Location: Interlaken

Current Time: Feb 28, 2015 at 5:33:59 PM

Latest Report: Feb 28, 2015 at 4:00 PM


Visibility: N/A

Pressure: 30.12 "Hg

Humidity: 73%

Dew point: 31 °F

Location of SpiezLocation

Historic Weather in Spiez — Graph

°F

Spiez temperature yesterday

Maximum temperature yesterday: 40 °F (at 3:00 PM)
Minimum temperature yesterday: 33 °F (at 10:00 AM)
Average temperature yesterday: 36 °F

Past Weeks' High & Low Weather Summary

 TemperatureHumidityPressure
High46 °F (Feb 14, 3:00 PM)99% (Feb 17, 6:00 AM)30.69 "Hg (Feb 17, 6:00 AM)
Low24 °F (Feb 26, 8:00 AM)38% (Feb 26, 4:00 PM)29.57 "Hg (Feb 21, 12:00 PM)
Average34 °F81%30.08 "Hg
* Reported Feb 13 4:00 PM — Feb 28 4:00 PM, Spiez, Weather by CustomWeather, © 2015

Note: Actual official high and low records may vary slightly from our data, if they occured in-between our weather recording intervals... More about our weather records

Advertising

Spiez weather history for previous 24 hours

 ConditionsComfort  
Time TempWeatherWind HumidityBarometerVisibility
4:00 PM
Sat, Feb 28
39 °FChilly.2 mph73%30.12 "HgN/A
3:00 PM39 °FChilly.5 mph73%30.13 "HgN/A
2:00 PM40 °FChilly.3 mph72%30.13 "HgN/A
1:00 PM38 °FChilly.1 mph78%30.16 "HgN/A
12:00 PM38 °FChilly.6 mph79%30.17 "HgN/A
11:00 AM37 °FChilly.7 mph82%30.18 "HgN/A
10:00 AM36 °FChilly.7 mph86%30.19 "HgN/A
9:00 AM35 °FChilly.3 mph88%30.20 "HgN/A
8:00 AM35 °FChilly.6 mph87%30.19 "HgN/A
7:00 AM35 °FChilly.5 mph87%30.18 "HgN/A
6:00 AM35 °FChilly.6 mph88%30.17 "HgN/A
5:00 AM34 °FChilly.3 mph92%30.17 "HgN/A
3:00 AM34 °FChilly.6 mph91%30.17 "HgN/A
2:00 AM35 °FChilly.8 mph91%30.19 "HgN/A
1:00 AM35 °FChilly.7 mph86%30.20 "HgN/A
12:00 AM36 °FChilly.7 mph83%30.19 "HgN/A
11:00 PM
Fri, Feb 27
36 °FChilly.5 mph82%30.19 "HgN/A
9:00 PM38 °FChilly.10 mph77%30.17 "HgN/A
8:00 PM37 °FChilly.7 mph82%30.16 "HgN/A
7:00 PM36 °FChilly.3 mph89%30.15 "HgN/A
6:00 PM38 °FChilly.6 mph80%30.12 "HgN/A
5:00 PM39 °FChilly.8 mph72%30.07 "HgN/A
Weather by CustomWeather, © 2015

See weather overviewHow to use our weather pages